(75706) = 1998 SL85 = 2000 AJ117

Discovered at Socorro on 2000-01-05 by LINEAR.

Orbit

Orbit type: Main Belt

Note: WebGL enabled browser required.

epoch2024-03-31.0
epoch JD2460400.5
perihelion date2023-11-09.71826
perihelion JD2460258.21826
argument of perihelion (°)17.74994
ascending node (°)154.63158
inclination (°)5.95515
eccentricity0.0947101
perihelion distance (AU)2.2369553
Tisserand w.r.t. Jupiter3.5
ΔV w.r.t. Earth (km/sec)9.5
semimajor axis (AU)2.4709821
mean anomaly (°)36.10344
mean daily motion (°/day)0.25374610
aphelion distance (AU)2.705
period (years)3.88
P-vector [x]-0.99046795
P-vector [y]0.11041863
P-vector [z]0.08234665
Q-vector [x]-0.13037411
Q-vector [y]-0.94442723
Q-vector [z]-0.30176117
absolute magnitude15.63
phase slope0.15
uncertainty0
referenceMPEC 2024-F14
observations used1936
oppositions17
arc length (days)9304
first opposition used1998
last opposition used2024
residual rms (arc-secs)0.63
perturbers coarse indicatorM-v
perturbers precise indicator003Ek
first observation date used1998-09-26.0
last observation date used2024-03-17.0
computer nameMPCLINUX
JD of orbit computation2456966.849694
perihelion JD uncertainty (days)6.4862E-05
argument of perihelion uncertainty (°)3.4523E-05
ascending node uncertainty (°)3.0116E-05
inclination uncertainty (°)4.5194E-06
eccentricity uncertainty 5.9103E-08
perihelion distance uncertainty (AU)1.4307E-07
Minimum Orbit Intersection Distances (in AU)
for orbit epoch: 2460400.5, reference: E2024-G51
Mercury1.83639
Venus1.51766
Earth1.24381
Mars0.57506
Jupiter2.25657
Saturn6.56455
Uranus16.1998
Neptune27.16

Observations

1980 total observations over interval: 1998 09 26.13772 – 2024 03 17.316190
These data are available for download (format description).

Date (UT) J2000 RA J2000 Dec Magn Location Ref
1998 09 26.13772 00 15 26.12 -03 08 41.0 19.0   704 – Lincoln Laboratory ETS, New Mexico MPS 2745
1998 09 26.15420 00 15 25.36 -03 08 47.6 19.8   704 – Lincoln Laboratory ETS, New Mexico MPS 2745
1998 09 26.18750 00 15 23.68 -03 09 03.2 19.4   704 – Lincoln Laboratory ETS, New Mexico MPS 2745
1998 09 27.29347 00 14 27.32 -03 17 19.4 19.9   704 – Lincoln Laboratory ETS, New Mexico MPS 2745
1998 09 27.31096 00 14 26.25 -03 17 26.3 19.8   704 – Lincoln Laboratory ETS, New Mexico MPS 2745
1998 09 27.32896 00 14 25.39 -03 17 32.6 19.8   704 – Lincoln Laboratory ETS, New Mexico MPS 2745
1998 09 27.34639 00 14 24.30 -03 17 41.4 19.8   704 – Lincoln Laboratory ETS, New Mexico MPS 2745
1998 09 27.36429 00 14 23.37 -03 17 50.2 19.8   704 – Lincoln Laboratory ETS, New Mexico MPS 2745
1999 12 31.34368 08 18 40.56 +12 57 23.1 18.4 R 699 – Lowell Observatory-LONEOS MPS 10178
1999 12 31.39108 08 18 38.42 +12 57 32.4   699 – Lowell Observatory-LONEOS MPS 10178
1999 12 31.42166 08 18 36.98 +12 57 38.0   699 – Lowell Observatory-LONEOS MPS 10178
2000 01 05.30011 08 14 51.67 +13 14 36.7 19.0   704 – Lincoln Laboratory ETS, New Mexico MPS 9353
2000 01 05.31478 08 14 50.90 +13 14 40.8 19.0   704 – Lincoln Laboratory ETS, New Mexico MPS 9353
2000 01 05.32935 08 14 50.15 +13 14 44.1 18.8   704 – Lincoln Laboratory ETS, New Mexico MPS 9353
2000 01 05.34394 08 14 49.41 +13 14 47.6 18.9   704 – Lincoln Laboratory ETS, New Mexico MPS 9353
2000 01 05.35853 08 14 48.67 +13 14 51.5 19.2   704 – Lincoln Laboratory ETS, New Mexico MPS 9353
2000 01 07.30733 08 13 10.07 +13 22 37.5 18.2   704 – Lincoln Laboratory ETS, New Mexico MPS 9353
2000 01 07.32218 08 13 09.24 +13 22 41.1 18.6   704 – Lincoln Laboratory ETS, New Mexico MPS 9353
2000 01 07.33686 08 13 08.44 +13 22 44.2 18.6   704 – Lincoln Laboratory ETS, New Mexico MPS 9353
2000 01 07.36626 08 13 06.88 +13 22 50.8 18.6   704 – Lincoln Laboratory ETS, New Mexico MPS 9353
2000 02 02.24940 07 48 31.64 +15 39 17.5 18.9   704 – Lincoln Laboratory ETS, New Mexico MPS 10178
2000 02 02.26380 07 48 30.80 +15 39 23.3 19.4   704 – Lincoln Laboratory ETS, New Mexico MPS 10178
2000 02 02.27831 07 48 30.06 +15 39 26.9 19.5   704 – Lincoln Laboratory ETS, New Mexico MPS 10178
2000 02 02.29263 07 48 29.07 +15 39 31.8 19.1   704 – Lincoln Laboratory ETS, New Mexico MPS 10178
2000 02 02.30740 07 48 28.37 +15 39 37.5 19.2   704 – Lincoln Laboratory ETS, New Mexico MPS 10178
2000 02 03.22827 07 47 40.37 +15 44 58.4 18.9   704 – Lincoln Laboratory ETS, New Mexico MPS 10178
2000 02 03.24295 07 47 39.56 +15 45 02.4 18.8   704 – Lincoln Laboratory ETS, New Mexico MPS 10178
2000 02 03.25759 07 47 38.73 +15 45 07.3 18.8   704 – Lincoln Laboratory ETS, New Mexico MPS 10178
2000 02 03.27223 07 47 37.95 +15 45 11.8 19.3   704 – Lincoln Laboratory ETS, New Mexico MPS 10178
2000 02 03.28688 07 47 37.16 +15 45 16.7 19.0   704 – Lincoln Laboratory ETS, New Mexico MPS 10178
2000 02 06.16058 07 45 13.42 +16 01 47.5 18.9   704 – Lincoln Laboratory ETS, New Mexico MPS 10178
2000 02 06.17569 07 45 12.63 +16 01 52.1 18.6   704 – Lincoln Laboratory ETS, New Mexico MPS 10178
2000 02 06.19066 07 45 11.88 +16 01 58.2 19.3   704 – Lincoln Laboratory ETS, New Mexico MPS 10178
2000 02 06.20571 07 45 11.18 +16 02 03.8 19.7   704 – Lincoln Laboratory ETS, New Mexico MPS 10178
2000 02 06.22069 07 45 10.35 +16 02 07.4 19.0   704 – Lincoln Laboratory ETS, New Mexico MPS 10178
2000 02 08.22786 07 43 36.32 +16 13 30.9 18.5   704 – Lincoln Laboratory ETS, New Mexico MPS 10178
2000 02 08.24477 07 43 35.50 +16 13 36.7 18.8   704 – Lincoln Laboratory ETS, New Mexico MPS 10178
2000 02 08.26179 07 43 34.63 +16 13 43.0 18.9   704 – Lincoln Laboratory ETS, New Mexico MPS 10178
2000 02 08.27881 07 43 33.84 +16 13 47.8 18.9   704 – Lincoln Laboratory ETS, New Mexico MPS 10178
2000 02 08.29594 07 43 33.04 +16 13 53.7 18.5   704 – Lincoln Laboratory ETS, New Mexico MPS 10179
2000 02 11.23201 07 41 26.66 +16 30 16.8 18.9   704 – Lincoln Laboratory ETS, New Mexico MPS 10179
2000 02 11.24697 07 41 25.98 +16 30 20.5 18.9   704 – Lincoln Laboratory ETS, New Mexico MPS 10179
2000 02 11.26148 07 41 25.35 +16 30 25.4 18.7   704 – Lincoln Laboratory ETS, New Mexico MPS 10179
2000 02 11.27610 07 41 24.70 +16 30 29.7 19.0   704 – Lincoln Laboratory ETS, New Mexico MPS 10179
2000 02 11.29063 07 41 24.10 +16 30 34.2 19.1   704 – Lincoln Laboratory ETS, New Mexico MPS 10179
2000 03 05.17695 07 33 58.58 +18 17 29.4 19.2   704 – Lincoln Laboratory ETS, New Mexico MPS 10933
2000 03 05.19046 07 33 58.66 +18 17 32.6 19.1   704 – Lincoln Laboratory ETS, New Mexico MPS 10933
2000 03 05.23123 07 33 58.65 +18 17 41.6 19.1   704 – Lincoln Laboratory ETS, New Mexico MPS 10933
2002 09 05.69228 01 21 34.28 +03 30 37.3 19.5 R 327 – Peking Observatory, Xinglong Station MPS 155699
2002 09 05.70056 01 21 34.12 +03 30 35.0 19.1 R 327 – Peking Observatory, Xinglong Station MPS 155699
2002 09 05.70888 01 21 33.93 +03 30 32.5 19.4 R 327 – Peking Observatory, Xinglong Station MPS 155699
2002 09 28.52491 01 07 18.19 +00 58 48.0 20.1   608 – Haleakala-AMOS MPS 62813
2002 09 28.53592 01 07 17.64 +00 58 43.0 19.9   608 – Haleakala-AMOS MPS 62813
2002 09 28.54733 01 07 17.08 +00 58 37.8 20.2   608 – Haleakala-AMOS MPS 62813
2002 09 30.27861 01 05 52.51 +00 45 54.4 18.8   704 – Lincoln Laboratory ETS, New Mexico MPS 62813
2002 09 30.29292 01 05 51.81 +00 45 46.7 19.6   704 – Lincoln Laboratory ETS, New Mexico MPS 62813
2002 09 30.30718 01 05 51.03 +00 45 40.7 19.0   704 – Lincoln Laboratory ETS, New Mexico MPS 62813
2002 09 30.32140 01 05 50.34 +00 45 34.3 19.0   704 – Lincoln Laboratory ETS, New Mexico MPS 62813
2002 09 30.33570 01 05 49.56 +00 45 28.5 19.5   704 – Lincoln Laboratory ETS, New Mexico MPS 62813
2002 10 02.31894 01 04 10.45 +00 30 50.4 19.0   704 – Lincoln Laboratory ETS, New Mexico MPS 62813
2002 10 02.33380 01 04 09.57 +00 30 44.9 19.5   704 – Lincoln Laboratory ETS, New Mexico MPS 62813
2002 10 02.34974 01 04 08.75 +00 30 38.0 19.5   704 – Lincoln Laboratory ETS, New Mexico MPS 62813
2002 10 03.25170 01 03 23.23 +00 24 01.7 19.2   704 – Lincoln Laboratory ETS, New Mexico MPS 62813
2002 10 03.26677 01 03 22.47 +00 23 54.3 19.6   704 – Lincoln Laboratory ETS, New Mexico MPS 62813
2002 10 03.28166 01 03 21.68 +00 23 48.5 19.5   704 – Lincoln Laboratory ETS, New Mexico MPS 62813
2002 10 03.29664 01 03 20.88 +00 23 41.8 19.2   704 – Lincoln Laboratory ETS, New Mexico MPS 62813
2002 10 03.31150 01 03 20.10 +00 23 34.9 19.4   704 – Lincoln Laboratory ETS, New Mexico MPS 62813
2002 10 05.352150 01 01 35.599 +00 08 39.71 19.18 V 645 – Apache Point-Sloan Digital Sky Survey MPS 79637
2002 10 05.355622 01 01 35.415 +00 08 38.17 20.07   645 – Apache Point-Sloan Digital Sky Survey MPS 79637
2002 10 10.345080 00 57 17.353 -00 26 58.47 19.21 V 645 – Apache Point-Sloan Digital Sky Survey MPS 79637
2002 10 10.348552 00 57 17.169 -00 26 59.93 20.04   645 – Apache Point-Sloan Digital Sky Survey MPS 79638
2002 10 11.24404 00 56 31.02 -00 33 10.6 18.9   704 – Lincoln Laboratory ETS, New Mexico MPS 62813
2002 10 11.25906 00 56 30.30 -00 33 18.6 19.0   704 – Lincoln Laboratory ETS, New Mexico MPS 62813
2002 10 11.27400 00 56 29.51 -00 33 23.9 19.0   704 – Lincoln Laboratory ETS, New Mexico MPS 62813
2002 10 11.28905 00 56 28.67 -00 33 30.0 19.2   704 – Lincoln Laboratory ETS, New Mexico MPS 62813
2002 10 11.30403 00 56 27.89 -00 33 36.3 19.0   704 – Lincoln Laboratory ETS, New Mexico MPS 62813
2002 10 30.26308 00 41 44.27 -02 21 51.0 19.5   704 – Lincoln Laboratory ETS, New Mexico MPS 65509
2002 10 30.28057 00 41 43.44 -02 21 55.9 19.9   704 – Lincoln Laboratory ETS, New Mexico MPS 65509
2002 10 30.29795 00 41 42.69 -02 22 01.2 19.8   704 – Lincoln Laboratory ETS, New Mexico MPS 65509
2002 10 30.31556 00 41 42.00 -02 22 04.8 19.6   704 – Lincoln Laboratory ETS, New Mexico MPS 65509
2003 11 30.40765 09 26 32.99 +10 10 05.6 19.6   704 – Lincoln Laboratory ETS, New Mexico MPS 92623
2003 11 30.42074 09 26 33.45 +10 10 03.0 19.7   704 – Lincoln Laboratory ETS, New Mexico MPS 92623
2003 11 30.43358 09 26 33.99 +10 09 59.4 19.5   704 – Lincoln Laboratory ETS, New Mexico MPS 92623
